Tracking 18647 objects as of 28-May-2017
HD Live streaming from Space Station
objects crossing your sky now

OPS 9442 (DSCS 2-12)

Track OPS 9442 (DSCS 2-12) now!
OPS 9442 (DSCS 2-12) is classified as:


NORAD ID: 11145
Int'l Code: 1978-113B
Perigee: 36,297.2 km
Apogee: 36,331.7 km
Inclination: 14.5 °
Period: 1,462.8 minutes
Semi major axis: 42685 km
RCS: 5.0418 m2 (large)
Launch date: December 14, 1978
Source: United States (US)
Launch site: AIR FORCE EASTERN TEST RANGE (AFETR)
Your satellite tracking list
Your tracking list is empty





NASA's NSSDC Master Catalog

Two Line Element Set (TLE):
1 11145U 78113B   17147.22658010 -.00000172 +00000-0 +00000-0 0  9997
2 11145 014.5357 335.0533 0004036 090.6079 273.2816 00.98442665084550
Source of the keplerian elements: AFSPC